QPF
0.00 0.00 0.00 0.00 0.00 0.00 0.00 0.00 0.00 0.00 0.00 0.00 0.00 0.00 0.00 0.00 0.00 0.00 0.00 0.00 0.00 0.00 0.00 0.00 0.00 0.00 0.00 0.00 0.00 0.00 0.00 0.00 0.00 0.00 0.00 0.00 0.00 0.00 0.00 0.00 0.00 0.00 0.00 0.00 0.00
0.00 0.00 0.00 0.00 0.00 0.00 0.00 0.00 0.00 0.00 0.00 0.00 0.00 0.00 0.00 0.00 0.00 0.00 0.00 0.00 0.00 0.00 0.00 0.00 0.00 0.00 0.00 0.00 0.00 0.00 0.00 0.00 0.00 0.00 0.00 0.00 0.00 0.00 0.00 0.00 0.00 0.00 0.00 0.00 0.00
0.00 0.00 0.00 0.00 0.00 0.00 0.00 0.00 0.00 0.00 0.00 0.00 0.00 0.00 0.00 0.00 0.00 0.00 0.00 0.00 0.00 0.00 0.00 0.00 0.00 0.00 0.00 0.00 0.00 0.00 0.00 0.00 0.00 0.00 0.00 0.00 0.00 0.00 0.00 0.00 0.00 0.00 0.00 0.00 0.00
0.00 0.00 0.00 0.00 0.00 0.00 0.00 0.00 0.00 0.00 0.00 0.00 0.00 0.00 0.00 0.00 0.00 0.00 0.00 0.00 0.00 0.00 0.00 0.00 0.00 0.00 0.00 0.00 0.00 0.00 0.00 0.00 0.00 0.00 0.00 0.00 0.00 0.00 0.00 0.00 0.00 0.00 0.00 0.00 0.00
0.00 0.00 0.00 0.00 0.00 0.00 0.00 0.00 0.00 0.00 0.00 0.00 0.00 0.00 0.00 0.00 0.00 0.00 0.00 0.00 0.00 0.00 0.00 0.00 0.00 0.00 0.00 0.00 0.00 0.00 0.00 0.00 0.00 0.00 0.00 0.00 0.00 0.00 0.00 0.00 0.00 0.00 0.00 0.00 0.00
0.00 0.00 0.00 0.00 0.00 0.00 0.00 0.00 0.00 0.00 0.00 0.00 0.00 0.00 0.00 0.00 0.00 0.00 0.00 0.00 0.00 0.00 0.00 0.00 0.00 0.00 0.00 0.00 0.00 0.00 0.00 0.00 0.00 0.00 0.00 0.00 0.00 0.00 0.00 0.00 0.00 0.00 0.00 0.00 0.00
0.00 0.00 0.00 0.00 0.00 0.00 0.00 0.00 0.00 0.00 0.00 0.00 0.00 0.00 0.00 0.00 0.00 0.00 0.00 0.00 0.00 0.00 0.00 0.00 0.00 0.00 0.00 0.00 0.00 0.00 0.00 0.00 0.00 0.00 0.00 0.00 0.00 0.00 0.00 0.00 0.00 0.00 0.00 0.00 0.00
0.00 0.00 0.00 0.00 0.00 0.00 0.00 0.00 0.00 0.00 0.00 0.00 0.00 0.00 0.00 0.00 0.00 0.00 0.00 0.00 0.00 0.00 0.00 0.00 0.00 0.00 0.00 0.00 0.01 0.00 0.00 0.00 0.00 0.00 0.00 0.00 0.00 0.00 0.00 0.00 0.00 0.00 0.00 0.00 0.00
0.00 0.00 0.00 0.00 0.00 0.00 0.00 0.00 0.00 0.00 0.00 0.00 0.00 0.00 0.00 0.00 0.00 0.00 0.00 0.00 0.00 0.00 0.00 0.00 0.00 0.00 0.00 0.00 0.00 0.00 0.00 0.00 0.00 0.00 0.00 0.00 0.00 0.00 0.00 0.00 0.00 0.00 0.00 0.00 0.00
0.00 0.00 0.00 0.00 0.00 0.00 0.00 0.00 0.00 0.00 0.00 0.00 0.00 0.00 0.00 0.00 0.00 0.00 0.00 0.00 0.00 0.00 0.00 0.00 0.00 0.00 0.00 0.00 0.00 0.00 0.00 0.01 0.00 0.02 0.06 0.00 0.00 0.00 0.00 0.00 0.00 0.00 0.00 0.00 0.00
0.00 0.00 0.00 0.00 0.00 0.00 0.00 0.00 0.00 0.00 0.00 0.00 0.00 0.00 0.00 0.00 0.00 0.00 0.00 0.00 0.00 0.00 0.00 0.00 0.00 0.00 0.00 0.00 0.00 0.00 0.00 0.00 0.00 0.00 0.01 0.00 0.00 0.00 0.00 0.00 0.00 0.00 0.00 0.00 0.00
0.00 0.00 0.00 0.00 0.00 0.00 0.00 0.00 0.00 0.00 0.00 0.00 0.00 0.00 0.00 0.00 0.00 0.00 0.00 0.00 0.00 0.00 0.00 0.00 0.00 0.00 0.00 0.00 0.00 0.00 0.01 0.00 0.00 0.00 0.00 0.00 0.00 0.00 0.00 0.00 0.00 0.00 0.00 0.00 0.00
0.00 0.00 0.00 0.00 0.00 0.00 0.00 0.00 0.00 0.00 0.00 0.00 0.00 0.00 0.00 0.00 0.00 0.00 0.00 0.00 0.00 0.00 0.00 0.00 0.00 0.00 0.00 0.00 0.00 0.00 0.00 0.00 0.00 0.00 0.00 0.00 0.00 0.00 0.00 0.00 0.00 0.00 0.00 0.00 0.00
0.00 0.00 0.00 0.00 0.00 0.00 0.00 0.00 0.00 0.00 0.00 0.00 0.00 0.00 0.00 0.00 0.00 0.00 0.00 0.00 0.00 0.00 0.00 0.00 0.00 0.00 0.00 0.00 0.00 0.00 0.00 0.00 0.00 0.00 0.00 0.00 0.00 0.00 0.00 0.00 0.00 0.00 0.00 0.00 0.00
0.00 0.00 0.00 0.00 0.00 0.00 0.00 0.00 0.00 0.00 0.00 0.00 0.00 0.00 0.00 0.00 0.00 0.00 0.00 0.00 0.00 0.00 0.00 0.00 0.00 0.00 0.00 0.00 0.00 0.00 0.00 0.00 0.00 0.00 0.00 0.00 0.00 0.00 0.00 0.00 0.00 0.00 0.00 0.00 0.00
0.00 0.00 0.00 0.00 0.00 0.00 0.00 0.00 0.00 0.00 0.00 0.00 0.00 0.00 0.00 0.00 0.00 0.00 0.00 0.00 0.00 0.00 0.00 0.00 0.00 0.00 0.00 0.00 0.00 0.00 0.00 0.00 0.00 0.00 0.00 0.00 0.00 0.00 0.00 0.00 0.00 0.00 0.00 0.00 0.00
0.00 0.00 0.00 0.00 0.00 0.00 0.00 0.00 0.00 0.00 0.00 0.00 0.00 0.00 0.00 0.00 0.00 0.00 0.00 0.00 0.00 0.00 0.00 0.00 0.00 0.00 0.00 0.00 0.00 0.00 0.00 0.00 0.00 0.00 0.00 0.00 0.00 0.00 0.00 0.00 0.00 0.00 0.00 0.00 0.00
0.00 0.00 0.00 0.00 0.00 0.00 0.00 0.00 0.00 0.00 0.00 0.00 0.00 0.00 0.00 0.00 0.00 0.00 0.00 0.00 0.00 0.00 0.00 0.00 0.00 0.00 0.00 0.00 0.00 0.00 0.00 0.00 0.00 0.00 0.00 0.00 0.00 0.00 0.00 0.00 0.00 0.00 0.00 0.00 0.00
0.00 0.00 0.00 0.00 0.00 0.00 0.00 0.00 0.00 0.00 0.00 0.00 0.00 0.00 0.00 0.00 0.00 0.00 0.00 0.00 0.00 0.00 0.00 0.00 0.00 0.00 0.00 0.00 0.00 0.00 0.00 0.00 0.00 0.00 0.00 0.00 0.00 0.00 0.00 0.00 0.00 0.00 0.00 0.00 0.00
0.00 0.00 0.00 0.00 0.00 0.00 0.00 0.00 0.00 0.00 0.00 0.00 0.00 0.00 0.00 0.00 0.00 0.00 0.00 0.00 0.00 0.00 0.00 0.00 0.00 0.00 0.00 0.00 0.00 0.00 0.00 0.00 0.00 0.00 0.00 0.00 0.00 0.00 0.00 0.00 0.00 0.00 0.00 0.00 0.00
0.00 0.00 0.00 0.00 0.00 0.00 0.00 0.00 0.00 0.00 0.00 0.00 0.00 0.00 0.00 0.00 0.00 0.00 0.00 0.00 0.00 0.00 0.00 0.00 0.00 0.00 0.00 0.00 0.00 0.00 0.00 0.00 0.00 0.00 0.00 0.00 0.00 0.00 0.00 0.00 0.00 0.00 0.00 0.00 0.00
0.00 0.00 0.00 0.00 0.00 0.00 0.00 0.00 0.00 0.00 0.00 0.00 0.00 0.00 0.00 0.00 0.00 0.00 0.00 0.00 0.00 0.00 0.00 0.00 0.00 0.00 0.00 0.00 0.00 0.00 0.00 0.00 0.00 0.00 0.00 0.00 0.00 0.00 0.00 0.00 0.00 0.00 0.00 0.00 0.00
0.00 0.00 0.00 0.00 0.00 0.00 0.00 0.00 0.00 0.00 0.00 0.00 0.00 0.00 0.00 0.00 0.00 0.00 0.00 0.00 0.00 0.00 0.00 0.00 0.00 0.00 0.00 0.00 0.00 0.00 0.00 0.00 0.00 0.00 0.00 0.00 0.00 0.00 0.00 0.00 0.00 0.00 0.00 0.00 0.00
0.00 0.00 0.00 0.00 0.00 0.00 0.00 0.00 0.00 0.00 0.00 0.00 0.00 0.00 0.00 0.00 0.00 0.00 0.00 0.00 0.00 0.00 0.00 0.00 0.00 0.00 0.00 0.00 0.00 0.00 0.00 0.00 0.00 0.00 0.00 0.00 0.00 0.00 0.00 0.00 0.00 0.00 0.00 0.00 0.00
0.01 0.05 0.01 0.01 0.01 0.00 0.00 0.00 0.00 0.00 0.00 0.00 0.00 0.00 0.00 0.00 0.00 0.00 0.00 0.00 0.00 0.00 0.00 0.00 0.00 0.00 0.00 0.00 0.00 0.00 0.00 0.00 0.00 0.00 0.00 0.00 0.00 0.00 0.00 0.00 0.00 0.00 0.00 0.00 0.00
0.03 0.05 0.03 0.01 0.00 0.00 0.00 0.00 0.00 0.00 0.00 0.00 0.00 0.00 0.00 0.00 0.00 0.00 0.00 0.00 0.00 0.00 0.00 0.00 0.00 0.00 0.00 0.00 0.00 0.00 0.00 0.00 0.00 0.00 0.00 0.00 0.00 0.00 0.00 0.00 0.00 0.00 0.00 0.00 0.00
0.03 0.02 0.04 0.00 0.00 0.00 0.01 0.00 0.00 0.00 0.00 0.00 0.00 0.00 0.00 0.00 0.00 0.00 0.00 0.00 0.00 0.00 0.00 0.00 0.00 0.00 0.00 0.00 0.00 0.00 0.00 0.00 0.00 0.00 0.00 0.00 0.00 0.00 0.00 0.00 0.00 0.00 0.00 0.00 0.00
MSLP
1018.57 1018.11 1017.68 1017.19 1016.66 1016.10 1015.54 1014.95 1014.38 1013.86 1013.32 1012.82 1012.32 1012.03 1011.41 1010.87 1009.64 1009.01 1007.59 1005.08 1004.76 1004.42 1005.22 1004.90 1004.93 1004.44 1004.33 1003.94 1003.68 1004.44 1004.65 1004.06 1003.68 1003.78 1004.93 1005.47 1006.30 1007.84 1008.63 1009.94 1011.11 1012.15 1013.75 1015.26 1016.18
1019.05 1018.50 1017.87 1017.29 1016.67 1016.17 1015.60 1015.00 1014.39 1013.82 1013.23 1012.62 1012.10 1011.67 1011.30 1010.83 1009.75 1007.43 1004.52 1004.41 1004.47 1004.54 1004.75 1004.64 1004.24 1003.81 1004.36 1003.32 1003.31 1004.09 1004.15 1003.02 1002.97 1003.21 1004.06 1005.12 1006.07 1007.62 1009.24 1010.89 1012.41 1013.31 1014.61 1015.33 1016.12
1019.18 1018.75 1018.26 1017.72 1017.03 1016.22 1015.55 1014.94 1014.37 1013.73 1013.23 1012.70 1012.05 1011.45 1011.00 1010.67 1009.22 1005.31 1004.22 1004.32 1004.56 1004.58 1004.58 1004.38 1003.88 1003.71 1003.81 1002.84 1003.02 1003.33 1003.13 1002.81 1003.16 1003.54 1004.08 1004.77 1006.27 1007.75 1009.38 1011.50 1012.22 1013.07 1014.19 1015.04 1015.86
1019.14 1018.69 1018.18 1017.66 1017.16 1016.57 1015.87 1015.09 1014.29 1013.65 1013.07 1012.61 1012.02 1011.41 1010.72 1010.31 1007.90 1004.38 1004.10 1004.19 1004.28 1004.13 1004.71 1004.09 1003.56 1003.33 1002.89 1003.22 1003.15 1002.57 1002.65 1002.90 1003.37 1003.72 1004.28 1005.59 1006.45 1008.04 1009.20 1010.84 1012.29 1013.26 1014.05 1014.97 1015.77
1019.00 1018.54 1018.03 1017.44 1016.89 1016.29 1015.61 1014.97 1014.25 1013.61 1013.06 1012.63 1012.06 1011.56 1010.26 1009.55 1006.24 1003.63 1004.07 1004.26 1004.52 1004.11 1003.98 1003.92 1003.48 1003.24 1003.11 1002.59 1002.23 1002.68 1003.07 1003.21 1003.43 1003.99 1004.90 1005.77 1007.28 1008.53 1010.20 1011.26 1012.41 1013.39 1014.22 1014.84 1015.34
1018.97 1018.37 1017.79 1017.19 1016.49 1015.91 1015.28 1014.57 1013.91 1013.19 1012.66 1012.37 1012.00 1011.71 1011.02 1008.46 1004.29 1003.42 1003.61 1004.02 1003.73 1003.75 1003.21 1003.24 1002.88 1002.57 1002.82 1002.54 1002.68 1003.16 1003.41 1003.72 1003.98 1004.62 1005.41 1006.70 1007.91 1008.91 1011.03 1011.74 1012.56 1013.36 1013.98 1014.53 1015.16
1019.07 1018.43 1017.69 1016.93 1016.21 1015.48 1014.80 1014.10 1013.37 1012.79 1012.19 1011.89 1011.81 1011.33 1009.75 1005.88 1003.80 1003.26 1003.86 1003.38 1002.81 1002.86 1002.86 1002.32 1002.13 1002.67 1002.45 1003.55 1003.94 1003.80 1003.97 1004.19 1004.16 1004.42 1005.58 1006.87 1008.65 1009.96 1010.98 1011.95 1012.67 1013.27 1013.77 1014.38 1015.03
1019.11 1018.42 1017.75 1016.90 1015.97 1015.19 1014.36 1013.47 1012.65 1012.01 1011.58 1011.37 1011.43 1010.83 1008.14 1004.48 1003.64 1003.26 1003.00 1002.85 1002.26 1002.24 1002.28 1001.90 1001.85 1002.45 1003.72 1004.37 1004.69 1005.30 1005.62 1005.25 1004.38 1004.41 1005.35 1006.04 1008.84 1009.95 1010.84 1011.57 1012.36 1012.87 1013.42 1014.00 1014.49
1019.10 1018.44 1017.66 1016.84 1015.90 1014.88 1013.97 1012.74 1011.41 1011.07 1010.78 1010.93 1010.98 1010.07 1006.32 1003.33 1003.33 1002.56 1002.84 1002.71 1002.34 1002.06 1001.83 1001.73 1001.86 1002.51 1004.70 1005.12 1006.64 1007.45 1006.79 1006.27 1005.26 1004.34 1004.53 1005.59 1008.47 1009.49 1010.21 1011.20 1011.83 1012.44 1013.03 1013.54 1013.96
1019.23 1018.42 1017.62 1016.66 1015.65 1014.82 1013.58 1011.61 1009.78 1010.51 1010.22 1010.09 1009.62 1008.96 1005.11 1002.89 1001.98 1001.68 1001.92 1002.25 1002.33 1002.19 1001.99 1002.12 1002.40 1002.81 1004.16 1005.55 1006.80 1007.37 1006.95 1006.70 1006.11 1005.45 1005.04 1005.78 1007.16 1008.57 1009.16 1009.99 1010.82 1011.73 1012.36 1012.91 1013.21
1019.28 1018.53 1017.59 1016.45 1015.35 1014.58 1013.84 1011.50 1010.13 1010.26 1009.48 1007.99 1006.76 1005.18 1002.39 1001.80 1000.99 1001.20 1001.38 1001.83 1001.98 1002.23 1002.33 1002.23 1002.94 1002.91 1003.75 1003.97 1004.53 1006.29 1006.73 1006.72 1005.19 1006.04 1005.50 1005.86 1006.83 1007.75 1008.25 1008.92 1009.87 1010.68 1011.42 1012.04 1012.33
1019.14 1018.53 1017.66 1016.32 1015.00 1013.95 1013.90 1012.56 1010.16 1009.30 1007.74 1006.45 1005.54 1004.65 1003.03 1002.49 1001.93 1000.63 1000.74 1001.61 1001.93 1002.16 1002.27 1002.46 1002.22 1002.03 1002.25 1003.24 1003.16 1005.58 1006.79 1006.05 1005.42 1004.66 1005.40 1005.02 1006.14 1006.76 1007.11 1007.55 1008.20 1009.14 1010.15 1010.78 1011.55
1019.25 1018.52 1017.69 1016.29 1014.50 1013.34 1013.13 1011.51 1009.54 1008.78 1007.80 1004.76 1003.77 1002.91 1002.00 1002.19 1001.26 1000.24 1000.11 1000.75 1001.37 1001.85 1001.89 1001.87 1001.48 1001.29 1001.35 1001.75 1003.26 1004.54 1004.90 1004.82 1004.22 1003.25 1003.75 1004.33 1006.10 1006.26 1006.16 1006.47 1007.27 1007.99 1008.66 1009.35 1010.22
1019.21 1018.66 1017.93 1016.65 1014.06 1014.31 1012.68 1011.07 1010.00 1009.31 1007.87 1003.34 1001.38 1000.14 1000.88 1001.23 1000.34 999.57 999.29 1000.08 1000.76 1000.96 1001.45 1001.22 1000.82 1000.46 1000.32 1000.66 1001.04 1002.79 1003.00 1002.26 1002.51 1003.17 1002.62 1003.17 1005.48 1005.81 1005.44 1005.63 1006.37 1007.13 1007.82 1008.41 1009.23
1019.17 1018.65 1018.17 1017.87 1016.90 1015.01 1013.12 1011.70 1010.39 1009.80 1007.19 1000.02 998.02 997.16 997.94 999.42 998.67 998.53 998.69 999.49 999.92 1000.22 1001.01 1000.17 999.92 999.66 999.42 999.04 999.45 1000.08 1000.80 1000.23 1000.58 1001.65 1002.13 1002.46 1003.77 1004.43 1004.77 1005.08 1005.34 1006.02 1006.64 1007.27 1008.16
1019.12 1018.61 1018.19 1016.96 1016.29 1014.65 1013.68 1012.46 1010.93 1009.81 1004.84 999.29 996.21 996.37 997.84 998.55 998.72 998.13 998.38 999.08 999.57 1000.14 1000.05 999.83 999.14 998.83 998.54 998.05 998.04 998.45 999.45 1000.01 1000.51 1001.65 1002.37 1002.08 1002.50 1003.30 1003.33 1003.23 1003.91 1004.61 1005.29 1006.11 1007.28
1019.02 1018.37 1018.17 1017.57 1015.75 1014.45 1014.27 1013.09 1011.55 1007.61 1002.26 998.81 996.52 996.42 997.10 997.60 998.29 998.26 998.31 998.66 998.66 999.53 999.56 999.46 998.81 998.07 997.78 997.88 997.57 998.07 999.52 1000.91 1002.03 1002.78 1002.49 1001.22 1001.63 1000.90 1001.21 1001.30 1001.95 1003.07 1004.09 1004.93 1006.02
1018.79 1017.98 1016.45 1015.61 1015.01 1014.66 1014.44 1013.51 1010.46 1004.74 1002.08 998.02 996.45 996.74 997.09 997.47 997.85 997.84 998.12 998.24 998.33 998.88 999.52 999.20 998.62 997.39 996.86 997.34 997.66 998.31 999.45 1000.69 1002.07 1002.71 1001.97 1000.88 1000.29 999.21 999.04 999.67 1000.41 1001.29 1002.44 1003.80 1004.92
1018.61 1016.90 1015.01 1013.43 1013.61 1014.12 1014.42 1012.40 1007.79 1004.94 1002.24 999.98 998.56 997.48 997.04 997.03 997.23 997.61 997.56 997.40 997.40 997.91 998.56 998.60 997.94 997.15 996.70 996.68 997.17 997.98 998.88 999.80 1001.26 1001.68 1002.17 1000.56 999.42 998.35 998.46 999.11 999.72 1000.76 1001.76 1002.78 1003.82
1018.96 1016.70 1013.85 1012.35 1012.75 1012.94 1013.21 1010.62 1007.83 1005.34 1003.55 1002.67 1001.43 998.84 997.94 997.03 997.04 997.03 996.73 996.24 996.60 996.96 997.72 997.92 998.28 997.12 996.54 996.57 996.44 997.22 998.44 999.73 1000.95 1002.29 1002.46 1001.25 1000.28 998.93 998.86 998.87 999.28 1000.00 1000.83 1001.72 1002.59
1018.69 1015.82 1011.98 1010.96 1011.71 1012.37 1011.09 1010.29 1008.93 1007.30 1006.02 1004.94 1002.80 1001.69 1000.68 999.57 996.83 996.30 995.93 995.71 995.63 995.95 996.93 997.42 997.80 997.15 996.76 996.01 996.67 997.18 998.14 999.46 1000.54 1001.67 1002.36 1001.80 1000.54 998.57 998.20 998.12 998.60 999.10 999.78 1000.68 1001.61
1017.74 1015.40 1011.71 1011.09 1011.68 1011.37 1010.94 1010.42 1009.85 1008.18 1005.71 1005.96 1004.60 1002.77 1001.86 1000.48 999.13 996.81 994.52 994.27 994.05 994.91 995.84 996.11 996.86 997.34 996.20 995.79 996.10 996.70 997.93 999.30 1001.07 1001.61 1001.76 1001.20 999.76 997.54 998.12 997.63 997.63 998.13 999.04 999.73 1000.41
1017.98 1015.40 1012.78 1012.00 1012.21 1012.07 1011.00 1010.12 1009.21 1008.28 1005.97 1005.88 1004.47 1002.79 1002.01 1001.18 1000.47 996.07 993.47 993.04 993.55 993.73 994.40 995.41 996.43 997.16 996.72 996.07 995.66 996.15 997.45 998.42 999.59 1000.52 1000.87 1001.06 999.10 996.37 997.05 997.21 997.31 997.80 998.65 999.29 999.99
1018.37 1015.74 1014.44 1013.67 1013.55 1013.43 1012.46 1010.68 1008.82 1007.76 1005.91 1005.68 1004.66 1004.17 1002.65 1000.91 999.79 997.23 994.16 992.31 992.23 992.69 993.57 994.86 995.77 996.32 996.21 995.56 995.69 996.22 996.89 997.59 998.65 999.90 1000.00 999.69 998.99 997.50 997.00 997.15 997.52 997.76 998.18 999.06 999.80
1018.23 1017.38 1016.97 1016.13 1014.95 1014.46 1013.48 1011.89 1009.64 1007.02 1005.50 1004.91 1003.99 1003.30 1002.65 1001.28 999.51 997.23 994.72 992.99 991.66 991.98 993.02 994.14 994.88 995.68 995.62 995.31 995.11 995.22 995.99 996.69 997.46 998.11 999.08 998.25 998.40 997.36 997.07 997.19 997.38 997.83 998.36 999.12 1000.07
1018.73 1018.46 1017.60 1016.83 1015.63 1014.72 1013.60 1011.46 1009.46 1007.12 1005.57 1003.98 1002.97 1002.33 1001.85 1000.62 999.47 997.69 995.93 994.39 992.61 991.41 992.41 993.23 994.45 995.36 995.73 995.30 994.70 994.52 994.57 995.37 996.13 996.59 997.20 996.98 996.95 996.02 995.94 996.69 997.17 997.70 998.56 999.42 999.96
1018.45 1018.11 1017.72 1016.37 1015.39 1015.16 1013.57 1011.87 1009.78 1007.89 1005.22 1004.01 1002.64 1001.65 1000.48 999.57 998.31 997.07 996.02 995.03 993.76 993.11 991.64 992.52 993.98 995.12 995.66 995.35 995.20 994.76 993.86 994.01 994.80 995.16 995.65 995.93 995.92 995.72 996.12 996.60 997.07 997.75 998.33 999.16 999.98
Thickness
5723 5727 5732 5737 5743 5749 5756 5763 5770 5776 5783 5789 5796 5800 5806 5812 5824 5831 5835 5862 5869 5878 5873 5871 5867 5868 5865 5854 5858 5851 5809 5807 5818 5818 5812 5830 5815 5819 5822 5803 5799 5795 5780 5772 5771
5717 5723 5729 5735 5741 5747 5753 5759 5766 5773 5781 5789 5795 5801 5806 5811 5821 5833 5870 5873 5875 5877 5871 5863 5863 5867 5843 5851 5849 5831 5813 5828 5849 5845 5837 5832 5824 5818 5804 5790 5779 5778 5776 5776 5771
5713 5718 5723 5729 5736 5744 5751 5758 5764 5771 5778 5784 5792 5800 5806 5811 5817 5844 5870 5872 5873 5877 5875 5873 5873 5864 5840 5858 5851 5841 5827 5849 5849 5852 5850 5837 5828 5825 5803 5779 5783 5776 5774 5775 5769
5710 5715 5720 5726 5732 5738 5745 5753 5761 5769 5776 5782 5789 5797 5805 5810 5788 5859 5871 5872 5875 5880 5868 5867 5864 5847 5839 5830 5851 5842 5857 5855 5851 5854 5848 5829 5833 5816 5811 5798 5795 5788 5783 5775 5768
5706 5711 5717 5723 5730 5736 5744 5751 5758 5765 5772 5778 5785 5792 5805 5801 5822 5870 5870 5871 5871 5874 5863 5858 5853 5847 5836 5852 5865 5846 5851 5855 5855 5853 5845 5841 5821 5811 5800 5804 5799 5790 5783 5776 5774
5700 5707 5714 5720 5728 5734 5742 5750 5757 5765 5771 5775 5781 5786 5793 5790 5857 5869 5872 5869 5870 5867 5867 5866 5860 5864 5852 5854 5848 5858 5853 5850 5852 5846 5843 5824 5818 5815 5799 5803 5796 5790 5784 5783 5778
5694 5700 5708 5717 5725 5732 5740 5748 5756 5764 5771 5775 5778 5784 5793 5818 5859 5870 5865 5864 5876 5873 5862 5878 5881 5856 5860 5839 5852 5854 5836 5844 5847 5848 5839 5834 5802 5795 5804 5801 5792 5789 5787 5784 5780
5688 5694 5701 5709 5720 5729 5738 5747 5756 5764 5770 5774 5775 5782 5789 5845 5857 5863 5868 5867 5879 5882 5880 5886 5887 5866 5839 5846 5837 5822 5820 5805 5843 5849 5842 5834 5781 5805 5810 5803 5793 5795 5793 5790 5788
5681 5687 5695 5704 5713 5725 5734 5747 5759 5764 5769 5771 5772 5779 5795 5850 5844 5863 5864 5854 5866 5875 5882 5888 5879 5857 5834 5816 5799 5795 5786 5795 5817 5851 5847 5834 5792 5813 5819 5806 5798 5798 5797 5796 5795
5671 5679 5687 5697 5708 5718 5730 5748 5764 5760 5766 5771 5776 5772 5811 5820 5847 5860 5868 5863 5853 5858 5856 5856 5849 5831 5823 5799 5758 5780 5787 5795 5796 5828 5836 5825 5814 5820 5824 5819 5811 5806 5803 5801 5800
5660 5668 5678 5690 5702 5712 5720 5738 5747 5744 5758 5768 5779 5795 5823 5842 5861 5852 5862 5853 5851 5841 5817 5841 5814 5801 5818 5830 5830 5810 5802 5793 5818 5830 5827 5825 5818 5821 5830 5828 5817 5813 5809 5806 5808
5647 5656 5666 5681 5695 5707 5709 5716 5737 5746 5745 5778 5787 5799 5819 5831 5816 5842 5859 5827 5825 5811 5830 5818 5806 5839 5851 5836 5838 5811 5791 5795 5817 5840 5825 5830 5824 5832 5837 5837 5834 5827 5820 5819 5816
5630 5641 5652 5667 5687 5700 5701 5711 5741 5748 5733 5771 5792 5799 5811 5818 5814 5828 5845 5837 5822 5814 5819 5808 5829 5854 5849 5844 5823 5814 5805 5801 5817 5845 5850 5841 5813 5825 5842 5848 5844 5841 5839 5836 5828
5611 5622 5634 5650 5679 5677 5691 5715 5731 5737 5702 5764 5786 5811 5813 5817 5808 5847 5856 5838 5822 5815 5823 5822 5849 5846 5845 5835 5839 5803 5841 5846 5841 5832 5814 5854 5775 5815 5836 5838 5843 5841 5841 5841 5838
5590 5602 5613 5624 5636 5656 5679 5699 5713 5713 5670 5795 5806 5849 5836 5809 5834 5834 5860 5836 5815 5823 5818 5820 5834 5837 5837 5849 5864 5838 5856 5873 5877 5849 5852 5849 5813 5820 5839 5829 5839 5845 5848 5850 5848
5567 5579 5593 5609 5623 5642 5662 5680 5689 5670 5680 5777 5818 5811 5803 5808 5816 5833 5834 5843 5843 5821 5828 5832 5863 5855 5853 5874 5882 5890 5872 5872 5868 5846 5799 5835 5827 5818 5833 5846 5851 5858 5859 5859 5854
5545 5558 5570 5585 5606 5626 5637 5650 5643 5656 5756 5775 5793 5806 5802 5799 5803 5809 5809 5803 5800 5780 5787 5820 5833 5860 5871 5853 5875 5879 5846 5793 5788 5789 5788 5849 5834 5834 5868 5877 5874 5867 5867 5868 5867
5523 5537 5558 5577 5589 5604 5614 5617 5623 5710 5732 5799 5803 5799 5786 5798 5798 5803 5798 5793 5815 5806 5795 5788 5785 5840 5868 5855 5847 5854 5843 5794 5782 5781 5810 5857 5825 5856 5896 5899 5896 5890 5885 5879 5874
5505 5523 5546 5565 5576 5585 5584 5592 5655 5697 5740 5761 5774 5774 5779 5795 5798 5792 5793 5800 5818 5820 5790 5791 5799 5859 5864 5875 5872 5849 5834 5858 5824 5836 5819 5846 5872 5893 5900 5893 5894 5887 5886 5882 5882
5483 5504 5532 5549 5557 5564 5563 5598 5647 5689 5712 5723 5715 5761 5766 5785 5781 5782 5787 5815 5814 5831 5835 5817 5787 5842 5862 5872 5877 5859 5870 5822 5814 5789 5790 5825 5837 5837 5866 5880 5889 5888 5889 5890 5892
5469 5499 5526 5538 5539 5538 5561 5590 5621 5653 5673 5683 5700 5705 5723 5739 5785 5785 5789 5812 5827 5830 5834 5829 5808 5822 5850 5842 5836 5843 5836 5841 5834 5816 5784 5785 5817 5886 5882 5891 5891 5895 5900 5898 5897
5468 5483 5516 5522 5511 5533 5549 5573 5593 5622 5662 5661 5680 5700 5710 5730 5736 5762 5791 5807 5840 5838 5811 5835 5814 5793 5824 5861 5873 5858 5844 5835 5789 5801 5811 5811 5812 5903 5893 5903 5908 5906 5906 5909 5909
5454 5475 5496 5502 5490 5503 5537 5557 5581 5604 5641 5652 5676 5705 5713 5713 5710 5767 5804 5833 5837 5833 5821 5835 5806 5780 5799 5838 5857 5844 5849 5849 5840 5830 5808 5797 5816 5911 5905 5909 5913 5909 5906 5911 5911
5445 5467 5472 5478 5485 5487 5495 5519 5560 5597 5631 5645 5666 5682 5694 5710 5728 5749 5785 5829 5840 5840 5842 5840 5815 5794 5785 5812 5842 5827 5841 5849 5838 5804 5818 5821 5841 5883 5898 5897 5905 5909 5913 5909 5911
5443 5442 5444 5444 5463 5470 5487 5505 5532 5573 5625 5640 5654 5676 5684 5690 5709 5736 5781 5807 5836 5840 5835 5827 5800 5813 5822 5841 5851 5847 5843 5847 5832 5842 5813 5846 5848 5878 5890 5898 5904 5910 5910 5909 5900
5429 5427 5439 5443 5458 5470 5477 5502 5530 5569 5600 5627 5651 5678 5684 5689 5704 5723 5749 5773 5789 5837 5827 5834 5796 5814 5808 5835 5848 5844 5855 5853 5851 5855 5851 5862 5864 5899 5910 5910 5902 5905 5905 5899 5899
5432 5434 5436 5454 5465 5457 5480 5499 5521 5547 5587 5616 5646 5667 5678 5693 5715 5739 5760 5775 5790 5794 5823 5820 5806 5794 5787 5822 5827 5806 5844 5853 5855 5861 5866 5844 5868 5901 5899 5901 5895 5896 5900 5897 5894